Location: Lake Almanor
(40.2485°N, 121.1442°W)
Time: 01:37:42
(UTC-08:00)

STARLINK-1110 - Pass Details

Date: 29 January 2020
Orbit: 348 x 351 km, 53.0° (Epoch: 18 February)

Event Time Altitude Azimuth Distance (km) Brightness Sun altitude
Rises 18:57:04 0° 315° (NW) 2,167 7.2 -18.8°
Reaches altitude 10° 18:59:11 10° 325° (NW) 1,322 5.9 -19.2°
Enters shadow 19:00:40 23° 345° (NNW) 807 4.5 -19.5°
